Wind_Speed
18 18 15 12 10 8 8 7 8 10 11 13 15 17 17 18 19 19 19 19 18 18 18 20 21 23 25 24 25 26 26 27 26 27 24 24 34 35 36 38 41 38 33
20 17 15 12 11 11 15 12 11 13 15 17 18 20 21 22 22 23 23 23 23 22 21 20 21 22 25 28 29 28 27 26 29 30 27 30 28 27 27 38 41 37 34
16 16 15 16 16 13 12 14 16 17 19 20 22 23 24 25 26 27 27 26 26 26 26 26 25 25 25 25 25 27 27 28 29 31 39 35 28 27 27 33 38 38 41
15 18 16 11 11 12 15 17 19 21 23 23 25 26 27 27 27 28 29 30 30 30 31 31 31 31 30 29 28 27 24 23 22 25 29 30 27 25 26 28 31 28 30
11 10 10 13 14 16 19 20 22 24 26 27 27 27 27 25 22 26 28 28 28 28 28 30 30 32 34 34 33 25 24 25 26 28 31 31 30 29 30 28 30 28 27
4 7 11 13 16 18 20 21 23 23 23 22 21 20 19 19 21 23 26 26 26 25 24 25 26 27 28 31 35 38 39 33 31 31 33 34 32 30 29 29 29 28 29
8 11 15 18 19 19 20 19 18 17 17 17 18 18 18 19 21 22 25 25 26 25 25 23 22 17 22 20 21 24 26 30 34 35 35 34 34 31 31 32 31 31 30
13 17 18 18 18 17 15 14 15 17 19 18 16 16 17 17 19 21 23 24 24 24 24 24 22 23 22 23 23 24 22 20 22 23 26 29 31 30 31 32 31 31 28
17 17 16 16 14 13 13 15 17 18 16 16 15 16 15 17 19 22 24 25 24 23 22 22 22 22 23 24 24 25 27 29 27 29 31 31 31 31 31 31 30 22 24
17 17 16 14 12 11 13 15 15 13 15 17 15 14 15 16 16 20 22 25 27 28 27 24 23 23 22 23 23 24 27 29 25 25 24 23 23 27 26 23 23 23 20
13 11 10 8 9 11 14 12 11 15 16 16 15 14 15 17 17 17 20 23 25 28 28 28 26 25 26 25 22 23 25 25 26 26 26 25 24 24 23 24 26 28 26
11 11 10 9 10 12 12 10 14 15 17 18 21 21 19 17 16 17 20 23 25 28 29 28 28 29 29 29 29 29 27 26 27 26 25 26 24 24 22 21 21 25 22
9 9 9 10 11 11 11 12 12 15 18 20 22 25 25 24 21 19 21 23 26 30 29 29 27 29 32 31 26 25 22 25 30 32 31 24 21 23 21 21 21 19 19
7 8 10 10 11 9 10 11 11 15 18 20 23 27 28 27 25 25 27 28 32 32 32 30 29 26 24 26 23 20 25 21 22 22 26 28 20 21 20 17 13 12 15
6 8 9 10 12 8 10 9 9 13 19 20 23 26 27 28 27 27 29 29 27 26 25 22 24 27 28 26 24 27 29 29 28 22 17 17 18 20 14 12 10 11 13
5 6 8 10 11 11 9 5 7 11 14 17 18 20 20 20 21 21 21 21 21 21 21 24 25 26 29 32 33 34 37 34 25 15 12 6 9 10 11 9 9 11 11
6 7 10 11 11 10 10 11 12 12 16 16 16 15 16 18 18 17 19 27 29 26 25 29 31 33 29 31 32 35 39 38 24 18 9 5 4 2 3 5 5 8 9
5 8 11 12 11 10 9 11 13 15 18 16 13 14 15 14 17 17 20 24 26 31 36 36 32 30 29 32 32 34 35 35 31 26 18 15 10 8 4 0 1 4 5
5 9 11 12 13 10 8 9 11 14 16 17 15 15 15 15 14 17 19 24 29 32 37 39 41 40 34 33 33 32 33 31 27 25 20 16 12 8 7 4 1 3 4
5 9 9 10 12 10 9 10 12 14 16 17 18 19 17 16 19 22 22 26 27 30 35 36 39 41 41 35 35 35 37 29 30 24 19 17 15 11 7 6 7 5 3
3 7 7 8 10 10 9 11 12 13 16 17 18 16 17 19 18 20 21 23 27 29 29 31 34 36 37 39 40 35 29 30 28 24 22 17 12 12 10 8 8 6 2
3 4 6 7 10 11 10 10 11 13 14 15 17 18 18 20 20 20 21 22 24 26 27 30 31 30 31 32 34 37 37 29 26 24 21 16 18 16 12 10 9 8 8
3 5 6 7 9 9 9 10 11 13 14 14 15 16 18 21 22 21 23 23 23 24 26 25 27 28 28 28 27 27 29 31 30 24 21 19 18 16 14 14 11 10 6
7 8 9 9 10 10 11 13 14 14 14 16 17 16 17 17 17 17 17 17 19 22 24 24 25 26 27 27 26 23 20 21 22 22 22 20 17 16 17 18 17 14 12
10 11 11 12 13 13 14 15 16 17 18 18 18 20 20 19 20 19 20 21 23 23 25 26 26 26 26 26 24 22 18 14 14 14 15 15 15 14 16 15 14 14 12
14 14 15 15 15 15 16 17 17 18 19 19 20 22 23 23 24 24 25 25 27 27 27 28 29 31 30 27 25 24 20 15 13 12 11 10 10 9 9 8 9 8 9
Wind_Direction
94 84 78 77 63 43 21 357 336 326 317 309 309 310 309 305 302 301 299 299 297 292 285 279 275 275 272 267 261 257 254 253 254 256 253 266 265 276 263 262 267 268 267
83 75 64 51 33 9 352 335 325 314 309 307 307 304 303 301 300 298 297 295 295 291 289 287 282 273 267 263 265 268 266 261 258 260 259 262 267 268 269 265 267 267 269
70 56 41 16 360 345 330 329 324 319 315 313 308 306 303 301 302 300 297 294 291 289 287 285 282 281 280 278 274 272 271 268 269 269 267 274 269 275 270 267 265 264 264
46 31 21 9 357 341 334 329 321 316 312 311 307 305 302 301 298 293 290 289 288 285 283 280 278 276 274 273 272 272 272 268 266 266 266 267 268 265 261 263 264 263 265
46 28 9 359 343 331 325 320 316 313 313 311 310 308 308 308 302 300 298 297 295 291 286 282 277 273 271 271 271 268 266 268 267 266 267 268 264 261 259 265 265 266 264
38 5 353 337 324 320 318 315 314 315 315 315 316 319 322 319 316 314 312 312 310 305 300 297 293 290 283 276 269 266 263 262 263 262 265 265 264 262 264 264 263 264 268
355 339 329 328 326 323 323 323 323 323 324 323 323 324 327 324 323 322 318 317 313 311 308 306 304 299 293 289 283 277 271 265 262 263 265 264 267 263 264 263 262 263 265
338 333 331 332 329 331 335 339 340 339 333 335 341 346 351 355 353 349 346 343 335 328 317 308 303 299 296 291 292 287 280 274 269 267 265 269 267 268 263 262 264 265 266
326 328 333 335 343 350 351 348 347 352 1 3 1 8 24 17 4 356 349 344 335 329 322 318 318 307 300 294 291 286 282 279 279 279 277 273 269 266 262 260 258 269 271
342 347 349 352 353 352 350 347 354 1 6 12 20 12 16 9 9 0 353 350 352 351 353 346 336 327 320 312 304 290 283 281 282 281 278 280 275 265 258 255 262 258 261
351 359 6 5 359 356 357 1 13 20 18 17 9 358 357 3 358 352 354 356 348 342 344 343 341 339 334 330 322 301 294 295 283 279 278 278 275 265 262 261 261 263 261
14 17 10 4 0 1 7 28 25 24 20 12 6 6 2 356 349 353 1 356 349 337 334 334 332 330 323 316 310 305 296 288 279 273 269 267 263 265 266 262 261 260 258
21 15 10 5 1 6 21 30 35 25 15 12 8 1 0 1 355 349 351 350 343 333 332 334 330 328 327 325 329 328 314 292 279 268 262 260 261 265 270 266 263 253 244
16 18 12 6 10 22 27 31 31 17 8 5 0 359 355 354 352 351 348 342 339 342 341 338 334 337 338 338 342 351 343 334 303 284 270 260 252 262 267 263 254 234 236
13 14 14 11 17 34 23 33 35 11 355 357 359 352 349 350 353 346 343 344 344 343 342 346 343 347 2 7 5 358 351 343 327 308 285 265 244 250 256 261 245 226 229
16 13 9 10 13 20 26 34 3 356 7 6 356 347 349 352 354 358 9 10 358 355 19 16 14 11 13 16 16 9 9 354 347 336 303 271 241 244 248 251 249 236 229
7 11 12 10 10 13 14 11 7 18 36 17 355 0 8 7 8 34 37 37 32 34 30 27 31 25 18 27 21 24 22 19 37 48 52 92 119 148 240 234 212 210 222
16 16 19 15 16 13 12 9 14 15 24 24 17 24 26 29 27 28 38 39 42 41 44 38 29 30 27 28 33 32 36 33 39 51 73 90 76 93 114 192 157 188 200
31 24 17 14 15 15 21 19 33 28 27 25 50 43 35 40 40 37 39 45 43 42 46 42 38 41 37 37 36 40 42 45 44 52 60 63 67 62 47 41 99 187 186
30 14 14 19 23 35 38 45 43 42 36 32 38 36 37 40 44 47 50 49 46 41 42 40 39 39 40 39 39 38 39 45 48 47 44 52 55 63 49 55 58 56 125
8 0 17 33 34 43 47 48 52 49 48 45 43 40 43 48 48 45 44 44 41 41 38 38 38 37 35 34 34 36 38 41 53 51 44 42 43 45 61 60 65 51 8
19 27 55 60 57 56 59 58 59 61 62 59 57 55 53 52 47 46 45 42 42 39 35 35 36 32 30 28 27 30 33 36 41 47 46 36 55 47 49 49 55 60 60
83 79 84 83 74 69 74 75 73 72 70 64 60 55 53 51 46 42 40 39 38 35 31 27 29 27 25 22 20 22 24 28 33 31 28 29 27 32 26 25 25 38 78
100 93 93 94 87 85 83 81 76 72 71 66 61 58 54 54 49 44 41 31 28 28 26 22 21 18 16 11 9 10 11 14 21 24 35 39 38 36 46 48 53 50 50
104 99 99 95 93 90 86 81 76 70 66 62 59 57 53 50 48 43 41 37 36 30 25 22 22 20 14 9 4 359 355 351 357 7 21 30 37 43 39 39 46 54 58
106 103 100 97 92 89 86 82 78 76 70 64 62 59 57 54 51 48 45 40 40 38 34 28 24 23 23 26 21 15 5 350 347 346 351 360 11 19 26 39 36 29 38
Height
1490 1486 1488 1494 1494 1494 1493 1495 1495 1495 1493 1493 1491 1488 1484 1483 1482 1480 1479 1476 1475 1472 1471 1470 1469 1468 1469 1469 1467 1468 1468 1467 1465 1469 1471 1470 1469 1469 1471 1472 1473 1470 1469
1492 1489 1493 1493 1492 1493 1492 1496 1495 1493 1491 1490 1487 1485 1481 1480 1478 1475 1473 1470 1469 1467 1466 1465 1463 1461 1459 1460 1460 1460 1460 1460 1459 1456 1461 1459 1460 1459 1460 1460 1461 1461 1460
1492 1492 1492 1491 1490 1495 1497 1494 1493 1491 1488 1485 1484 1480 1478 1475 1472 1470 1467 1465 1463 1462 1461 1458 1458 1456 1455 1453 1452 1452 1451 1450 1450 1448 1446 1451 1447 1449 1451 1450 1450 1452 1451
1490 1488 1491 1497 1498 1497 1495 1491 1490 1488 1486 1481 1479 1476 1473 1469 1466 1463 1461 1458 1456 1453 1452 1451 1450 1449 1447 1446 1445 1445 1445 1445 1444 1443 1441 1443 1441 1443 1443 1442 1440 1442 1440
1496 1498 1499 1496 1495 1494 1491 1489 1486 1483 1479 1475 1472 1469 1465 1462 1458 1454 1451 1449 1446 1443 1442 1442 1440 1438 1437 1437 1437 1437 1438 1436 1436 1435 1433 1433 1433 1434 1433 1432 1430 1431 1430
1500 1500 1498 1496 1495 1492 1489 1486 1482 1478 1475 1471 1468 1465 1460 1458 1452 1449 1444 1443 1440 1436 1434 1432 1430 1427 1427 1426 1426 1426 1426 1425 1425 1425 1424 1423 1423 1423 1424 1423 1422 1421 1420
1499 1498 1496 1492 1490 1488 1484 1480 1478 1475 1471 1469 1465 1461 1456 1455 1450 1446 1442 1438 1435 1431 1428 1425 1423 1422 1418 1417 1416 1414 1413 1412 1412 1414 1412 1413 1412 1414 1415 1412 1412 1411 1410
1496 1493 1491 1489 1486 1482 1480 1478 1475 1471 1469 1465 1460 1457 1454 1450 1447 1443 1439 1434 1430 1427 1423 1420 1418 1415 1413 1410 1408 1405 1404 1404 1403 1403 1403 1401 1402 1403 1403 1402 1401 1401 1400
1495 1492 1489 1486 1482 1479 1478 1475 1472 1469 1465 1461 1458 1454 1452 1449 1446 1441 1436 1432 1428 1424 1420 1416 1413 1409 1406 1404 1401 1398 1395 1394 1394 1393 1392 1391 1392 1392 1393 1393 1392 1393 1392
1490 1486 1483 1482 1480 1479 1477 1474 1471 1468 1464 1461 1458 1455 1452 1449 1446 1441 1436 1431 1425 1420 1416 1412 1408 1405 1401 1398 1394 1391 1388 1386 1386 1385 1384 1382 1381 1381 1383 1383 1385 1386 1388
1488 1485 1483 1482 1480 1478 1476 1473 1470 1467 1464 1461 1458 1455 1451 1447 1444 1440 1436 1430 1424 1419 1415 1410 1406 1402 1398 1394 1390 1386 1382 1381 1378 1377 1374 1373 1373 1374 1375 1377 1378 1380 1381
1485 1483 1482 1481 1479 1477 1475 1472 1469 1467 1465 1461 1457 1452 1449 1445 1442 1438 1433 1429 1423 1417 1412 1407 1402 1398 1394 1390 1385 1379 1376 1373 1370 1367 1366 1364 1365 1365 1367 1369 1371 1372 1373
1485 1484 1483 1480 1478 1476 1474 1472 1470 1467 1464 1460 1456 1452 1447 1443 1439 1435 1431 1426 1422 1415 1410 1404 1399 1393 1387 1381 1375 1369 1365 1361 1358 1356 1356 1358 1359 1360 1361 1362 1363 1365 1366
1485 1483 1481 1479 1477 1474 1473 1471 1469 1467 1463 1459 1454 1449 1444 1440 1436 1432 1427 1422 1416 1409 1404 1399 1394 1388 1382 1376 1369 1363 1357 1352 1348 1345 1344 1348 1353 1353 1354 1356 1357 1359 1361
1484 1482 1480 1478 1475 1474 1472 1470 1469 1466 1462 1458 1454 1450 1444 1439 1436 1432 1427 1420 1414 1409 1403 1398 1393 1386 1379 1373 1367 1360 1352 1346 1339 1337 1337 1339 1344 1349 1350 1352 1354 1356 1358
1483 1481 1479 1476 1474 1473 1471 1470 1469 1467 1464 1459 1456 1451 1447 1442 1438 1433 1429 1423 1416 1411 1404 1398 1393 1387 1380 1374 1367 1360 1350 1341 1335 1331 1332 1336 1341 1344 1348 1349 1351 1353 1355
1481 1479 1477 1475 1474 1472 1470 1469 1467 1466 1462 1460 1456 1452 1447 1443 1439 1436 1432 1426 1419 1413 1407 1401 1395 1389 1382 1377 1370 1363 1354 1346 1339 1334 1335 1338 1342 1344 1346 1347 1349 1351 1353
1479 1478 1475 1474 1472 1470 1469 1468 1466 1463 1460 1459 1457 1453 1448 1445 1442 1438 1434 1428 1423 1417 1409 1404 1398 1392 1387 1381 1375 1368 1361 1356 1350 1345 1343 1345 1346 1348 1350 1350 1351 1352 1354
1478 1477 1475 1473 1471 1469 1469 1468 1466 1464 1461 1459 1457 1454 1450 1447 1443 1439 1435 1430 1426 1422 1415 1410 1404 1397 1392 1387 1381 1375 1369 1364 1361 1357 1355 1355 1354 1355 1355 1355 1355 1355 1356
1477 1476 1475 1473 1471 1470 1469 1468 1467 1465 1463 1460 1457 1453 1451 1448 1444 1441 1438 1435 1431 1427 1420 1416 1410 1405 1398 1393 1388 1383 1376 1372 1368 1365 1364 1362 1361 1360 1358 1357 1357 1357 1358
1477 1476 1474 1473 1472 1471 1470 1469 1467 1466 1464 1462 1460 1457 1454 1450 1448 1445 1442 1438 1435 1430 1426 1421 1416 1411 1406 1400 1395 1390 1385 1380 1375 1373 1371 1369 1367 1365 1363 1361 1361 1359 1358
1476 1475 1475 1474 1473 1472 1471 1470 1469 1468 1467 1465 1463 1460 1457 1454 1451 1448 1445 1442 1439 1435 1431 1426 1421 1417 1412 1407 1402 1397 1391 1387 1384 1380 1377 1375 1373 1369 1367 1364 1363 1362 1362
1475 1475 1475 1475 1474 1474 1473 1472 1471 1470 1469 1467 1465 1463 1460 1457 1454 1451 1448 1445 1441 1438 1434 1430 1425 1421 1416 1412 1408 1403 1398 1394 1389 1386 1382 1380 1378 1375 1374 1371 1368 1366 1366
1476 1476 1476 1476 1476 1475 1474 1474 1473 1472 1471 1469 1467 1465 1463 1459 1457 1454 1451 1448 1444 1440 1437 1433 1429 1424 1419 1415 1411 1407 1403 1399 1395 1392 1388 1386 1383 1381 1378 1375 1373 1371 1370
1477 1477 1478 1478 1478 1477 1477 1476 1475 1474 1473 1471 1470 1467 1465 1463 1460 1457 1454 1450 1446 1442 1438 1434 1431 1427 1422 1417 1412 1408 1404 1401 1398 1395 1393 1390 1387 1385 1383 1381 1379 1377 1376
1479 1479 1481 1481 1480 1480 1480 1479 1479 1477 1476 1475 1473 1471 1469 1466 1463 1460 1457 1453 1449 1446 1442 1438 1433 1428 1424 1420 1415 1410 1404 1401 1398 1396 1393 1391 1389 1387 1385 1383 1383 1381 1379